When you browse on this site, cookies collect data to enhance your experience and personalize the content and advertising you see.
Visit our Privacy Policy to learn more. By continuing to use the site, you agree to this use of cookies and data.
  • In Czech Republic
  • List of Countries
  • For 7 days
  • Water Temperature
  • Satellite Maps
  • Weather Map
  • Weather Widgets
  • user-avatar
    Login

    Hourly Weather Barisal

    Today, 21 March, Thursday

    Time Temperature Precipitation Wind Pressure Humidity
    00:00 +26°C° 0 mm 2 mps 758 mmHg 77%
    01:00 +26°C° 0 mm 2 mps 758 mmHg 80%
    02:00 +26°C° 0 mm 2 mps 757 mmHg 84%
    03:00 +25°C° 0 mm 2 mps 757 mmHg 88%
    04:00 +25°C° 0 mm 2 mps 757 mmHg 90%
    05:00 +25°C° 0 mm 2 mps 757 mmHg 92%
    06:00 +25°C° 0 mm 2 mps 758 mmHg 95%
    07:00 +27°C° 0 mm 2 mps 758 mmHg 83%
    08:00 +29°C° 0 mm 3 mps 758 mmHg 71%
    09:00 +33°C° 0 mm 3 mps 759 mmHg 58%
    10:00 +34°C° 0 mm 3 mps 759 mmHg 47%
    11:00 +36°C° 0 mm 3 mps 759 mmHg 36%
    12:00 +37°C° 0 mm 3 mps 759 mmHg 31%
    13:00 +37°C° 0 mm 3 mps 758 mmHg 28%
    14:00 +38°C° 0 mm 2 mps 758 mmHg 25%
    15:00 +39°C° 0 mm 2 mps 757 mmHg 22%
    16:00 +37°C° 0 mm 3 mps 757 mmHg 29%
    17:00 +35°C° 0 mm 3 mps 757 mmHg 36%
    18:00 +34°C° 0 mm 4 mps 757 mmHg 43%
    19:00 +33°C° 0 mm 4 mps 757 mmHg 50%
    20:00 +30°C° 0 mm 4 mps 757 mmHg 56%
    21:00 +29°C° 0 mm 3 mps 758 mmHg 63%
    22:00 +29°C° 0 mm 3 mps 758 mmHg 68%
    23:00 +28°C° 0 mm 3 mps 758 mmHg 73%

    Tomorrow, 22 March, Friday

    Time Temperature Precipitation Wind Pressure Humidity
    00:00 +27°C° 0 mm 3 mps 758 mmHg 77%
    01:00 +27°C° 0 mm 3 mps 757 mmHg 79%
    02:00 +27°C° 0 mm 3 mps 757 mmHg 81%
    03:00 +27°C° 0 mm 3 mps 757 mmHg 83%
    04:00 +26°C° 0 mm 3 mps 757 mmHg 84%
    05:00 +26°C° 0 mm 3 mps 757 mmHg 85%
    06:00 +26°C° 0 mm 3 mps 757 mmHg 87%
    07:00 +28°C° 0 mm 3 mps 757 mmHg 76%
    08:00 +30°C° 0 mm 3 mps 758 mmHg 65%
    09:00 +34°C° 0 mm 4 mps 759 mmHg 54%
    10:00 +34°C° 0 mm 4 mps 759 mmHg 50%
    11:00 +35°C° 0 mm 4 mps 758 mmHg 47%
    12:00 +36°C° 0 mm 4 mps 758 mmHg 43%
    13:00 +37°C° 0 mm 5 mps 757 mmHg 42%
    14:00 +37°C° 0 mm 5 mps 757 mmHg 40%
    15:00 +39°C° 0 mm 5 mps 756 mmHg 38%
    16:00 +36°C° 0.2 mm 5 mps 755 mmHg 42%
    17:00 +35°C° 0.2 mm 4 mps 755 mmHg 45%
    18:00 +33°C° 0.2 mm 4 mps 755 mmHg 49%
    19:00 +32°C° 0 mm 4 mps 755 mmHg 57%
    20:00 +30°C° 0 mm 4 mps 756 mmHg 66%
    21:00 +29°C° 0 mm 5 mps 757 mmHg 74%
    22:00 +28°C° 0 mm 4 mps 756 mmHg 77%
    23:00 +28°C° 0 mm 4 mps 756 mmHg 81%

    Day after tomorrow, 23 March, Saturday

    Time Temperature Precipitation Wind Pressure Humidity
    00:00 +28°C° 0 mm 4 mps 756 mmHg 84%
    01:00 +27°C° 0 mm 3 mps 756 mmHg 85%
    02:00 +27°C° 0 mm 3 mps 756 mmHg 87%
    03:00 +26°C° 0 mm 2 mps 755 mmHg 88%
    04:00 +26°C° 0 mm 2 mps 755 mmHg 88%
    05:00 +26°C° 0 mm 1 mps 756 mmHg 87%
    06:00 +26°C° 0 mm 1 mps 756 mmHg 87%
    07:00 +28°C° 0 mm 1 mps 757 mmHg 76%
    08:00 +30°C° 0 mm 1 mps 757 mmHg 66%
    09:00 +32°C° 0 mm 1 mps 758 mmHg 55%
    10:00 +34°C° 0 mm 1 mps 758 mmHg 45%
    11:00 +36°C° 0 mm 1 mps 758 mmHg 35%
    12:00 +39°C° 0 mm 1 mps 757 mmHg 26%
    13:00 +39°C° 0 mm 2 mps 756 mmHg 25%
    14:00 +39°C° 0 mm 2 mps 755 mmHg 24%
    15:00 +39°C° 0 mm 2 mps 755 mmHg 23%
    16:00 +37°C° 0.1 mm 3 mps 755 mmHg 32%
    17:00 +36°C° 0.1 mm 3 mps 754 mmHg 41%
    18:00 +34°C° 0.1 mm 4 mps 754 mmHg 51%
    19:00 +33°C° 0.2 mm 4 mps 755 mmHg 60%
    20:00 +30°C° 0.2 mm 4 mps 755 mmHg 69%
    21:00 +29°C° 0.2 mm 4 mps 756 mmHg 78%
    22:00 +29°C° 0 mm 3 mps 756 mmHg 81%
    23:00 +28°C° 0 mm 3 mps 756 mmHg 83%

    24 March, Sunday

    Time Temperature Precipitation Wind Pressure Humidity
    00:00 +27°C° 0 mm 2 mps 756 mmHg 86%
    01:00 +27°C° 0 mm 2 mps 755 mmHg 83%
    02:00 +27°C° 0 mm 2 mps 755 mmHg 81%
    03:00 +26°C° 0 mm 2 mps 754 mmHg 78%
    04:00 +26°C° 0 mm 2 mps 755 mmHg 70%
    05:00 +26°C° 0 mm 2 mps 755 mmHg 61%
    06:00 +25°C° 0 mm 2 mps 755 mmHg 53%
    07:00 +28°C° 0 mm 2 mps 756 mmHg 42%
    08:00 +31°C° 0 mm 2 mps 757 mmHg 31%
    09:00 +34°C° 0 mm 2 mps 758 mmHg 20%
    10:00 +36°C° 0 mm 2 mps 757 mmHg 17%
    11:00 +38°C° 0 mm 3 mps 757 mmHg 13%
    12:00 +39°C° 0 mm 3 mps 757 mmHg 10%
    13:00 +40°C° 0 mm 3 mps 756 mmHg 10%
    14:00 +40°C° 0 mm 3 mps 755 mmHg 9%
    15:00 +42°C° 0 mm 4 mps 754 mmHg 9%
    16:00 +39°C° 0 mm 3 mps 754 mmHg 13%
    17:00 +37°C° 0 mm 3 mps 754 mmHg 16%
    18:00 +35°C° 0 mm 2 mps 754 mmHg 20%
    19:00 +32°C° 0 mm 2 mps 755 mmHg 24%
    20:00 +30°C° 0 mm 2 mps 756 mmHg 28%
    21:00 +29°C° 0 mm 2 mps 756 mmHg 33%
    22:00 +28°C° 0 mm 2 mps 756 mmHg 33%
    23:00 +28°C° 0 mm 2 mps 756 mmHg 32%

    25 March, Monday

    Time Temperature Precipitation Wind Pressure Humidity
    00:00 +28°C° 0 mm 2 mps 756 mmHg 32%
    01:00 +27°C° 0 mm 2 mps 756 mmHg 31%
    02:00 +27°C° 0 mm 2 mps 755 mmHg 29%
    03:00 +27°C° 0 mm 2 mps 755 mmHg 27%
    04:00 +26°C° 0 mm 2 mps 755 mmHg 29%
    05:00 +26°C° 0 mm 2 mps 756 mmHg 30%
    06:00 +25°C° 0 mm 1 mps 756 mmHg 31%
    07:00 +28°C° 0 mm 2 mps 757 mmHg 32%
    08:00 +30°C° 0 mm 2 mps 757 mmHg 32%
    09:00 +34°C° 0 mm 2 mps 758 mmHg 32%
    10:00 +36°C° 0 mm 2 mps 758 mmHg 27%
    11:00 +38°C° 0 mm 2 mps 757 mmHg 22%
    12:00 +40°C° 0 mm 2 mps 757 mmHg 18%
    13:00 +42°C° 0 mm 3 mps 756 mmHg 17%
    14:00 +42°C° 0 mm 3 mps 756 mmHg 16%
    15:00 +43°C° 0 mm 3 mps 755 mmHg 15%
    16:00 +40°C° 0 mm 3 mps 755 mmHg 19%
    17:00 +38°C° 0 mm 3 mps 755 mmHg 23%
    18:00 +36°C° 0 mm 3 mps 755 mmHg 27%
    19:00 +34°C° 0 mm 3 mps 755 mmHg 33%
    20:00 +33°C° 0 mm 3 mps 756 mmHg 38%
    21:00 +30°C° 0 mm 3 mps 756 mmHg 43%
    22:00 +30°C° 0 mm 3 mps 756 mmHg 45%
    23:00 +29°C° 0 mm 3 mps 756 mmHg 47%

    26 March, Tuesday

    Time Temperature Precipitation Wind Pressure Humidity
    00:00 +28°C° 0 mm 2 mps 756 mmHg 50%
    01:00 +28°C° 0 mm 2 mps 756 mmHg 50%
    02:00 +28°C° 0 mm 2 mps 755 mmHg 50%
    03:00 +27°C° 0 mm 2 mps 755 mmHg 50%
    04:00 +27°C° 0 mm 2 mps 755 mmHg 51%
    05:00 +27°C° 0 mm 2 mps 756 mmHg 52%
    06:00 +26°C° 0 mm 2 mps 756 mmHg 53%
    07:00 +29°C° 0 mm 2 mps 757 mmHg 47%
    08:00 +31°C° 0 mm 2 mps 758 mmHg 41%
    09:00 +35°C° 0 mm 2 mps 758 mmHg 35%
    10:00 +37°C° 0 mm 2 mps 758 mmHg 29%
    11:00 +39°C° 0 mm 2 mps 758 mmHg 24%
    12:00 +42°C° 0 mm 3 mps 757 mmHg 19%
    13:00 +42°C° 0 mm 3 mps 757 mmHg 19%
    14:00 +43°C° 0 mm 3 mps 756 mmHg 19%
    15:00 +43°C° 0 mm 4 mps 755 mmHg 19%
    16:00 +41°C° 0 mm 4 mps 755 mmHg 24%
    17:00 +39°C° 0 mm 5 mps 755 mmHg 28%
    18:00 +36°C° 0 mm 5 mps 755 mmHg 33%
    19:00 +34°C° 0 mm 4 mps 756 mmHg 40%
    20:00 +33°C° 0 mm 4 mps 756 mmHg 46%
    21:00 +30°C° 0 mm 3 mps 757 mmHg 53%
    22:00 +30°C° 0 mm 3 mps 757 mmHg 51%
    23:00 +30°C° 0 mm 4 mps 757 mmHg 48%
    Show more